Theta_e
291 288 287 287 289 288 288 287 286 283 286 285 283 280 281 281 281 281 283 286 286 288 286 285 285 285 289 291 292 293 290 288 288 290 291 291 291 291 291 291 291 292 294 294 293 293 294 295 294 295 295 298 301 304 307 309 311 313 315 314 315 317 317 319 321 322 324 323 323 323 324 324 326 326 327 327 328 330 331 331 330 331 330 329 328 327
291 287 287 288 289 290 288 285 286 285 284 286 283 283 282 282 284 286 288 286 286 288 283 281 284 286 287 289 290 291 287 290 291 292 291 292 292 292 291 292 292 293 292 292 293 293 291 292 293 293 294 296 298 301 304 307 310 312 312 314 315 314 315 318 320 322 323 324 325 324 324 325 325 324 324 325 326 327 327 328 330 330 330 332 331 327
288 287 289 289 286 285 284 284 284 285 284 282 285 282 283 283 281 284 285 286 285 288 283 281 285 289 290 291 292 291 292 292 289 289 291 291 291 292 291 291 292 292 293 291 291 289 291 291 291 292 294 296 299 299 302 305 306 309 311 314 314 314 315 317 318 319 320 322 322 322 319 323 319 317 322 323 322 322 324 325 326 327 327 328 328 328
285 286 289 286 286 288 285 284 285 284 283 282 282 283 283 283 286 285 285 286 286 285 286 284 285 289 289 286 288 289 290 289 288 288 289 289 291 292 293 292 292 292 292 291 290 291 290 289 289 289 291 294 296 298 298 302 306 308 310 312 312 313 313 315 316 315 315 313 313 310 308 313 316 315 311 317 316 318 320 322 322 323 325 326 327 327
285 287 287 286 286 289 287 285 286 286 286 283 282 281 282 284 283 282 285 284 282 284 282 283 283 285 280 281 283 286 283 283 284 284 285 288 289 290 290 290 291 291 291 291 291 291 289 289 290 290 291 292 295 297 299 301 305 309 309 310 311 311 311 311 310 312 309 308 305 304 306 307 308 308 310 312 316 316 316 317 319 322 320 321 323 325
286 286 286 287 286 286 286 284 285 287 283 286 283 283 283 282 285 285 282 285 277 282 281 282 280 276 279 280 281 282 283 287 284 285 288 287 286 285 287 289 289 290 289 291 293 293 290 290 290 290 290 292 293 295 297 298 303 303 305 306 307 307 308 310 309 310 310 312 312 309 312 310 306 310 307 312 315 315 315 318 319 316 319 320 321 322
284 287 286 287 287 285 286 286 285 287 282 283 286 284 283 283 284 283 283 281 279 279 283 280 281 276 280 282 285 282 282 286 286 284 286 286 287 284 287 288 287 287 288 287 288 289 290 291 291 291 291 291 293 294 294 296 299 301 302 303 305 307 305 306 306 308 309 309 310 311 313 315 313 313 311 306 306 313 314 314 316 317 316 318 319 320
287 286 286 286 286 285 284 284 286 287 285 284 283 282 284 285 285 282 282 282 279 279 282 280 277 278 280 283 282 280 281 284 285 285 286 288 287 288 287 286 285 286 285 287 288 288 289 290 290 292 292 292 293 292 293 296 298 299 300 300 302 301 303 303 305 307 309 311 310 309 309 310 311 311 311 306 306 302 303 310 313 314 315 315 316 318
287 286 286 286 284 284 286 284 286 286 285 284 283 284 284 284 281 280 280 279 279 281 281 277 283 280 277 281 282 281 285 283 283 284 287 288 289 289 289 289 287 284 284 285 287 288 289 291 292 291 292 292 292 293 295 296 297 297 297 298 298 300 300 301 303 306 306 309 310 310 309 308 308 307 304 297 298 303 300 304 305 310 313 313 313 314
289 288 287 288 287 285 285 285 284 288 288 286 283 283 282 282 281 280 278 280 279 279 274 279 281 276 278 279 280 279 283 281 281 285 286 287 288 290 291 291 291 289 288 286 286 287 289 290 290 290 290 291 291 290 293 294 295 295 295 297 298 298 299 300 301 304 305 306 305 307 306 307 308 302 298 297 302 301 298 302 302 306 309 310 311 311
289 290 290 287 287 286 286 284 284 284 287 286 284 286 283 280 279 278 277 276 275 272 275 278 277 278 276 279 280 284 285 281 281 284 284 287 289 290 290 290 291 290 289 289 289 289 289 287 288 288 292 289 290 290 292 293 293 293 295 295 297 297 296 297 300 301 303 303 304 307 306 306 306 303 302 300 299 298 299 302 303 303 305 306 309 309
288 288 289 287 286 284 286 286 285 285 284 286 284 280 284 281 278 278 272 275 272 268 272 276 278 277 275 275 282 281 282 282 286 287 285 286 288 288 289 290 290 289 288 288 287 290 288 291 290 288 290 290 290 291 292 290 291 293 293 294 297 296 296 295 297 298 301 301 303 303 304 305 305 304 303 303 304 301 301 301 302 300 299 301 304 305
287 288 286 289 288 288 286 288 286 286 282 282 282 285 279 272 270 274 268 274 271 269 278 276 277 278 278 280 284 284 285 283 282 284 286 287 287 287 287 289 289 288 288 289 289 289 290 289 290 290 290 289 290 290 290 290 290 291 293 294 296 296 294 295 295 298 299 299 301 303 303 304 304 303 303 303 303 300 301 301 300 299 301 300 300 302
283 282 286 289 290 289 289 287 284 284 283 282 285 279 274 271 268 265 259 261 266 272 276 277 278 277 278 281 287 289 288 284 284 284 284 284 286 286 287 288 289 288 287 288 287 288 289 289 289 289 289 289 290 289 289 289 290 292 293 293 294 295 293 293 294 296 297 299 301 301 302 303 302 302 302 302 302 301 301 300 300 300 301 301 301 301
278 279 285 289 286 289 289 288 290 287 285 285 282 284 281 269 266 265 263 271 271 270 273 274 274 272 275 282 286 286 286 284 283 284 284 283 285 286 285 285 285 286 284 284 287 289 290 291 289 290 290 289 289 290 289 289 290 291 293 293 293 293 292 292 295 295 297 299 299 299 300 301 300 302 301 302 301 301 300 299 299 300 300 300 301 301
283 280 283 287 287 289 290 288 287 286 285 283 280 281 278 277 274 271 266 264 263 268 269 273 275 275 281 284 285 285 284 285 284 285 285 285 283 282 285 285 285 283 285 286 288 291 290 290 289 289 291 290 290 290 290 291 291 292 293 292 292 293 293 293 293 295 297 298 297 296 298 299 299 299 299 298 298 299 299 300 299 300 299 300 300 297
280 281 285 285 285 288 288 287 288 288 285 284 283 278 280 279 279 270 268 270 270 268 271 268 277 280 280 284 289 283 284 285 284 284 285 284 282 281 284 284 283 286 287 287 289 289 291 290 291 290 290 291 290 291 292 292 291 292 292 292 292 292 291 292 293 295 294 295 295 296 297 297 297 298 299 300 300 299 298 298 298 299 299 297 296 298
282 280 285 286 287 288 287 286 286 285 286 283 279 281 281 281 279 277 272 264 261 268 271 270 275 276 275 279 281 282 285 284 285 285 282 284 282 288 290 288 289 289 287 286 286 287 288 289 291 291 292 292 291 290 292 292 290 291 292 292 292 292 293 292 292 292 293 294 294 295 296 296 298 299 299 299 299 298 297 296 296 295 296 296 297 297
285 280 284 284 285 287 285 288 288 288 287 283 281 284 284 279 277 277 271 269 266 265 266 269 272 273 276 279 278 283 283 285 285 284 284 288 290 290 291 291 290 290 292 294 293 292 292 292 292 291 291 291 290 290 289 291 292 292 292 291 292 293 293 293 293 292 292 292 295 295 295 295 297 297 298 297 297 295 296 297 296 296 297 294 294 295
286 280 280 285 285 287 287 286 284 285 286 286 285 284 284 279 275 273 275 269 271 266 263 268 267 275 277 278 278 283 282 282 283 283 282 286 289 290 291 291 292 293 292 292 293 293 291 290 289 289 289 291 291 291 291 291 292 293 292 292 293 292 291 291 292 291 292 293 293 294 293 293 295 296 296 297 296 296 297 297 296 296 294 297 296 295
284 281 276 283 286 286 285 284 285 286 282 281 282 281 285 279 281 279 276 273 274 263 261 265 269 272 277 279 281 285 283 282 282 285 285 287 287 287 289 291 292 293 294 293 293 292 291 290 289 289 287 287 287 287 288 290 290 291 291 291 291 292 293 293 292 291 293 292 293 291 293 294 293 294 294 294 294 295 296 295 294 294 295 291 294 292
284 281 279 281 282 283 283 284 284 286 287 286 286 283 286 280 277 275 276 276 267 271 268 262 273 272 280 281 285 284 283 284 282 283 286 285 286 286 288 291 291 292 292 292 292 289 288 288 288 288 288 286 287 288 289 289 288 289 289 290 290 290 291 291 292 291 293 291 292 292 293 293 291 292 291 292 292 292 293 292 293 293 289 291 294 291
286 282 282 277 283 286 286 286 283 285 285 285 285 284 286 284 280 273 273 273 271 272 270 267 269 275 282 282 282 281 281 281 282 287 289 288 286 287 290 290 290 290 290 289 288 288 288 287 287 286 286 287 285 286 285 286 287 288 287 287 287 287 289 289 291 290 290 291 291 291 290 289 289 288 288 289 290 290 291 290 289 288 290 291 291 289
291 281 280 279 279 281 283 284 285 284 287 287 285 281 284 284 283 281 274 275 279 272 272 269 267 275 278 281 281 280 280 280 281 287 291 288 288 288 289 290 290 291 289 286 286 285 286 285 286 287 288 289 288 288 288 287 286 286 287 287 286 287 288 287 287 287 287 288 289 288 287 287 287 287 287 288 289 289 289 289 289 287 289 290 289 290
284 282 284 273 273 277 279 284 283 284 285 282 282 282 284 282 278 277 277 274 274 275 277 275 273 276 283 280 282 283 285 285 287 285 285 290 288 288 288 288 286 285 285 285 286 287 286 286 287 287 288 288 288 287 287 287 287 287 288 289 288 289 288 287 286 287 287 286 287 287 286 286 286 286 287 288 288 288 288 288 288 287 289 289 289 290
287 283 282 277 276 274 273 274 279 282 283 282 278 281 283 285 281 281 278 275 275 274 278 273 277 279 282 281 286 285 285 286 285 284 283 284 287 288 287 286 287 285 287 287 287 286 287 287 287 287 287 288 287 287 287 287 288 289 291 291 289 289 289 289 286 286 286 286 286 288 286 286 286 286 287 287 287 288 288 287 287 288 288 288 290 290
281 282 284 284 282 280 282 281 284 285 282 282 282 283 283 284 284 284 279 275 279 277 276 280 283 282 282 284 284 286 284 287 288 286 287 288 286 285 284 285 286 287 286 286 287 286 287 287 288 286 287 287 287 287 288 289 290 290 290 290 290 289 288 288 288 288 287 287 286 287 288 287 287 286 286 286 287 287 286 287 287 287 288 288 288 289
281 283 284 284 285 285 282 280 283 288 284 285 283 283 284 284 284 284 282 282 284 276 276 282 283 282 283 281 283 284 285 284 287 288 287 284 284 285 287 286 288 286 287 287 288 288 287 286 286 287 287 287 288 288 289 289 288 288 288 288 289 288 288 289 288 289 288 287 287 287 288 287 287 287 287 287 287 287 286 286 286 287 287 286 287 288
284 283 284 283 284 284 282 280 283 285 286 286 286 285 283 284 284 283 284 286 284 281 281 284 282 282 285 285 287 287 288 289 288 290 289 286 284 285 287 289 287 286 286 287 287 287 286 287 286 286 286 287 288 288 288 289 289 289 288 288 288 287 288 287 287 288 288 287 288 288 287 287 287 286 287 287 287 287 287 287 287 287 287 286 287 287
287 281 283 284 284 284 281 281 282 285 284 284 285 285 286 285 284 285 286 287 286 284 286 285 282 285 288 287 288 289 288 289 287 286 286 287 287 288 287 287 287 286 286 287 287 287 286 286 285 285 286 288 288 288 288 288 288 287 287 288 288 287 287 286 286 286 287 287 288 288 287 287 286 286 285 286 286 287 287 287 287 287 287 287 287 287
287 281 286 282 280 281 281 280 281 282 283 282 282 284 285 285 285 286 287 287 286 285 285 284 281 282 286 285 288 290 287 287 287 287 289 289 287 286 286 286 285 286 286 286 286 285 285 285 286 287 287 287 287 286 287 286 286 286 287 287 287 287 286 285 286 286 286 287 287 286 286 286 287 286 287 287 286 286 286 287 286 286 286 286 287 287
286 280 280 279 278 276 280 281 281 281 280 279 280 281 282 283 282 284 284 286 284 283 285 284 283 284 289 286 289 288 286 287 289 289 289 289 288 287 288 285 285 286 286 287 285 286 286 286 286 286 285 286 286 286 286 286 286 286 287 287 287 286 285 285 285 285 286 285 286 286 286 285 286 286 287 287 287 287 286 286 286 286 286 286 286 286
284 283 280 277 277 277 278 280 279 278 277 276 279 283 284 285 286 287 287 286 287 289 285 283 284 291 288 288 288 286 287 288 288 288 289 288 286 286 286 286 286 285 286 285 285 285 285 285 284 284 285 284 285 286 285 284 285 286 286 286 286 285 285 286 285 285 286 286 285 286 285 285 285 286 286 286 286 286 286 286 286 286 286 287 287 285
282 284 280 280 278 273 275 278 278 277 274 277 288 289 287 285 285 284 284 286 288 288 287 290 290 286 284 286 288 288 288 289 291 290 288 290 286 284 285 286 285 285 284 284 284 284 284 284 284 284 284 285 284 284 284 284 284 285 285 285 285 284 285 285 285 285 285 285 285 285 285 284 285 285 285 285 285 285 285 285 286 286 286 286 286 286
281 282 279 278 278 275 274 278 278 275 277 288 285 287 290 289 288 287 288 288 289 289 289 288 288 287 287 288 290 290 290 286 285 286 286 285 286 288 287 286 285 285 285 284 284 284 284 284 284 284 285 285 285 284 284 285 284 284 284 284 284 284 284 284 284 284 285 285 285 285 285 285 285 285 285 285 284 284 284 285 285 285 286 286 286 286
283 283 280 281 281 281 277 277 275 278 286 286 286 286 285 287 286 285 284 287 287 287 288 288 290 292 289 288 288 288 287 285 286 285 285 286 285 287 286 286 285 285 285 285 285 285 285 284 284 284 284 284 284 285 283 285 284 284 285 284 284 284 283 284 284 285 286 286 286 286 286 286 285 285 285 286 285 285 286 286 285 286 286 285 285 286
286 283 283 281 284 280 280 281 281 284 283 285 285 285 288 285 285 285 283 286 290 290 289 289 290 291 289 289 288 284 285 286 285 286 286 284 286 284 287 286 285 285 285 285 285 286 284 283 284 284 284 284 284 284 285 285 284 284 285 285 285 285 285 285 285 286 286 286 286 286 286 285 285 285 285 285 285 285 286 286 286 286 284 285 286 285
290 286 285 284 282 285 283 280 281 281 278 284 288 285 289 288 290 290 288 286 288 290 291 290 290 290 290 286 285 285 287 287 284 285 286 286 284 285 283 283 283 284 284 284 283 284 283 284 284 283 283 283 283 283 284 284 285 285 286 286 286 286 285 285 285 285 285 286 286 285 285 285 284 284 284 284 284 285 285 286 286 285 285 284 286 286
290 291 287 286 284 284 282 280 280 279 282 288 286 287 287 288 291 287 286 284 289 288 290 290 290 291 289 287 284 286 288 286 286 286 287 285 284 284 285 283 283 283 284 284 285 283 283 283 283 283 283 283 284 284 284 284 285 285 285 285 285 285 284 284 285 285 285 285 285 285 284 284 284 283 283 284 284 284 284 285 285 285 285 285 284 285
287 286 286 284 282 284 283 281 279 284 282 284 283 282 284 287 291 290 280 281 289 286 289 289 290 291 289 288 286 288 289 287 287 286 287 285 285 284 284 285 284 283 283 282 282 283 283 283 283 283 284 284 285 286 286 285 284 284 285 285 285 284 284 284 285 285 285 285 285 284 284 284 283 283 283 283 284 284 284 284 284 285 285 285 285 285
284 284 285 281 283 283 284 282 283 283 285 284 282 282 284 289 291 283 278 286 288 286 286 289 290 288 288 286 287 288 285 285 285 286 284 284 284 284 282 282 283 283 282 283 283 283 283 283 283 284 284 285 286 286 286 285 285 284 284 284 284 284 284 284 284 284 284 284 284 284 284 284 283 283 283 283 283 284 284 284 283 284 284 284 284 284
284 284 284 285 282 281 282 281 281 284 285 285 282 284 285 289 282 281 288 285 285 284 283 284 284 284 287 287 285 284 284 284 285 284 284 284 285 283 283 282 282 282 282 281 281 282 283 283 284 284 284 285 285 285 284 284 283 283 282 282 282 283 284 284 283 283 283 283 283 283 282 282 283 283 283 283 283 282 283 283 283 282 283 283 283 282
284 283 280 281 284 284 283 280 280 277 286 287 287 286 287 284 285 288 286 284 285 285 285 285 286 285 286 285 285 286 285 285 286 285 284 284 285 284 284 282 282 281 281 281 282 282 282 281 282 282 283 284 284 284 284 282 281 280 281 282 282 283 283 283 283 282 282 282 281 281 281 282 282 282 282 282 282 281 281 282 282 282 282 281 281 281
289 283 283 284 287 280 281 278 279 286 286 288 292 287 288 289 288 287 288 285 285 285 285 286 285 285 286 287 286 285 285 284 283 284 284 283 282 280 281 281 281 280 280 280 281 281 280 281 281 281 282 282 283 283 283 283 281 281 281 281 282 282 282 282 281 281 280 281 280 281 281 281 281 281 281 281 281 281 281 281 281 281 282 281 280 281
288 286 287 283 288 285 282 285 287 284 286 286 285 286 285 285 286 287 287 288 287 286 283 286 285 284 286 287 286 286 284 284 284 283 283 283 282 281 280 280 281 281 280 280 281 281 281 280 280 280 280 281 281 281 281 281 280 279 278 280 280 280 280 280 280 279 279 279 279 280 280 280 281 281 281 281 280 280 281 280 281 281 281 281 280 280
283 284 284 285 285 285 285 284 284 282 283 283 283 283 283 284 283 283 286 286 284 284 284 286 284 283 284 286 285 283 283 283 283 282 282 282 282 282 281 279 280 280 280 280 279 279 278 278 277 277 276 277 277 278 278 278 277 276 277 278 278 278 278 279 278 278 278 278 279 279 279 279 279 280 280 280 281 280 280 280 280 280 280 280 280 280
281 282 285 283 282 285 281 284 282 283 281 281 281 281 281 281 282 283 285 285 283 283 282 282 283 283 282 283 284 283 282 281 281 280 281 281 280 280 280 279 279 278 277 276 276 276 274 273 273 272 272 272 274 274 274 274 274 274 274 274 276 277 279 279 279 278 278 278 278 278 278 278 278 279 279 280 280 280 280 280 280 279 279 280 280 280
281 282 284 280 281 283 281 281 280 279 279 279 279 281 280 280 280 281 282 282 281 281 281 281 281 280 280 280 280 280 280 281 280 279 278 278 278 277 277 276 275 275 275 275 274 273 271 271 271 270 270 270 272 272 271 271 271 271 272 273 275 277 279 279 279 278 278 277 278 278 278 278 278 278 278 278 279 279 279 280 280 279 279 280 280 280
280 284 276 280 282 279 280 280 279 280 281 281 279 279 279 279 279 279 279 279 279 278 277 277 278 278 278 278 279 279 277 277 276 276 275 275 274 274 273 272 272 271 271 271 271 270 269 270 269 269 268 268 270 269 268 268 269 271 272 274 276 278 278 278 277 276 276 276 276 276 277 277 277 277 277 276 277 278 279 279 279 280 280 281 282 281
281 281 279 280 273 274 278 280 280 280 276 282 281 280 279 279 278 277 277 277 277 277 277 275 275 275 275 276 276 277 275 274 273 273 271 273 272 271 270 270 269 269 268 268 268 267 267 267 267 266 266 267 267 267 267 268 270 272 273 275 277 278 275 274 274 274 274 275 276 276 275 275 275 275 275 275 276 276 277 279 281 281 280 280 282 283
282 282 280 278 279 278 282 282 285 284 283 284 284 281 279 278 278 279 278 276 274 276 276 275 274 273 273 272 273 273 273 272 271 271 270 270 270 270 269 268 267 267 267 267 266 265 265 265 266 265 264 265 266 266 267 268 270 272 274 276 276 274 273 273 272 272 272 272 271 272 271 271 272 273 274 275 275 275 276 276 278 281 283 283 283 284
Wind_Speed
1 5 6 8 8 7 5 5 4 3 6 5 4 4 3 4 1 2 2 2 0 1 4 4 5 6 12 11 12 13 3 5 6 9 9 8 8 9 8 8 9 9 15 1 2 3 5 6 4 5 5 6 6 7 8 9 10 11 12 9 12 10 8 8 9 8 9 10 8 7 9 10 7 7 6 5 5 6 6 6 5 5 6 8 7 6
3 4 8 6 7 9 6 7 9 8 4 6 5 5 1 1 2 0 1 3 2 1 1 1 3 9 12 12 12 9 5 10 11 11 11 11 10 9 9 10 11 12 4 2 4 4 4 5 5 4 4 5 6 9 7 10 12 8 7 10 10 6 9 10 11 10 9 10 10 10 10 9 8 7 7 8 7 8 6 6 8 8 6 10 13 13
3 9 8 5 4 9 7 5 4 6 5 3 5 3 3 3 3 3 1 2 3 1 4 1 4 9 11 11 12 9 11 7 4 6 7 6 9 9 8 9 11 9 12 2 3 4 5 5 5 4 4 5 8 4 7 8 6 7 9 10 8 7 9 10 9 9 10 9 8 8 4 6 4 3 4 6 4 4 6 6 7 7 6 6 6 6
3 6 7 4 6 8 3 3 7 7 6 6 5 4 6 2 3 2 2 1 3 2 2 1 5 11 8 6 12 11 6 7 5 6 9 7 10 12 12 7 7 10 9 7 4 7 6 5 4 4 4 5 4 5 4 6 8 7 8 8 7 7 7 7 8 8 5 4 2 1 1 1 3 4 3 4 3 4 6 7 6 6 7 6 5 6
7 1 1 9 5 9 5 1 6 5 3 1 4 3 4 2 2 2 1 0 1 1 2 1 3 8 3 4 3 2 3 3 5 4 6 8 8 10 9 9 8 10 7 9 8 7 5 5 6 5 4 3 5 5 6 5 6 6 7 6 6 5 6 5 5 6 5 5 4 3 4 4 3 3 1 4 5 5 5 5 7 9 5 5 5 5
3 1 4 7 3 3 6 3 5 7 2 0 4 6 5 5 6 0 1 3 3 1 3 3 3 2 4 6 8 8 7 8 3 5 8 6 6 5 8 11 6 6 5 8 9 7 3 5 6 6 5 3 4 4 4 4 4 5 4 4 5 4 5 6 5 6 6 7 7 6 6 5 4 5 5 8 10 9 8 10 7 4 7 7 7 6
3 0 2 6 7 4 5 6 5 5 6 4 5 5 3 6 6 6 3 3 0 1 2 1 1 5 5 4 5 5 8 11 8 2 9 9 8 5 8 8 6 6 6 5 6 5 6 6 4 4 2 4 4 4 3 3 4 4 3 4 5 5 4 4 5 6 6 6 6 9 10 9 9 10 7 6 5 7 7 5 5 6 5 7 8 7
2 1 4 4 5 5 5 4 4 8 8 5 1 6 7 7 7 5 5 2 1 1 2 4 3 1 8 7 5 4 5 9 9 10 8 7 7 7 7 7 6 6 4 5 5 5 4 5 4 4 2 2 4 3 2 1 1 3 4 4 4 4 4 4 5 6 7 8 7 7 8 7 8 9 9 7 6 4 4 6 7 6 6 6 6 7
3 4 4 5 2 4 7 4 4 5 7 2 1 4 5 6 5 5 5 5 0 1 6 4 1 0 5 8 4 2 3 6 8 7 7 7 7 6 6 6 5 5 5 4 4 2 3 4 4 3 3 3 2 2 1 1 1 1 2 3 3 4 4 4 6 7 7 7 8 8 7 7 7 6 5 3 3 5 4 5 5 6 6 5 5 5
2 2 5 6 6 6 2 1 2 5 3 1 6 7 7 7 7 4 4 4 1 1 5 3 1 2 8 6 6 2 1 5 3 3 6 5 6 5 6 6 5 4 2 2 4 3 3 3 4 4 3 2 3 2 1 1 1 2 3 4 4 4 4 4 5 6 6 6 6 7 7 9 8 5 4 3 4 4 3 5 5 5 5 5 5 5
1 3 4 3 3 2 5 3 1 2 1 9 3 8 7 8 4 3 7 2 3 1 5 4 4 1 4 5 5 1 1 3 1 3 3 4 5 5 5 5 5 5 4 4 2 1 2 3 2 4 4 4 3 3 3 3 2 2 3 4 4 3 3 3 4 5 6 6 6 8 8 9 8 6 6 5 5 4 3 6 6 5 6 4 5 4
1 1 1 0 3 3 3 5 5 3 4 4 3 4 6 4 6 5 5 5 1 5 4 1 1 0 6 6 3 8 4 4 2 1 3 5 5 5 6 6 5 4 4 3 3 3 3 3 4 4 4 4 3 3 4 3 3 2 2 3 3 1 3 4 4 4 5 5 6 6 6 8 8 7 7 9 9 7 8 7 7 5 4 5 5 4
1 2 1 2 3 6 3 9 5 2 3 5 6 7 7 2 4 2 3 2 5 5 1 3 1 1 7 10 4 4 7 4 6 6 4 4 6 6 7 9 8 5 5 4 4 4 4 5 4 5 4 4 4 2 2 2 1 1 1 2 4 4 3 4 4 5 5 5 6 7 7 8 6 7 7 8 7 5 7 7 6 5 6 4 5 6
4 1 1 1 2 3 5 10 2 2 1 4 9 7 6 2 1 3 3 1 5 5 4 1 0 3 4 9 13 15 9 4 5 7 7 5 5 6 7 9 9 7 5 4 4 3 3 4 4 2 2 3 3 3 2 2 1 0 0 1 3 4 3 4 4 5 5 7 7 6 7 7 6 7 7 7 7 7 6 5 6 7 7 7 8 7
4 4 6 7 2 3 1 3 11 8 8 7 1 7 8 8 5 3 3 4 4 4 2 3 1 6 5 2 1 5 4 4 4 5 5 5 8 8 3 7 9 7 5 3 4 4 3 4 3 4 4 4 4 4 4 3 2 1 0 1 2 4 3 3 5 4 6 6 6 5 6 6 5 6 6 6 6 5 6 6 7 7 6 7 7 7
8 4 3 2 1 2 7 1 3 6 5 0 3 5 5 6 5 1 4 3 1 0 1 1 5 4 4 2 8 4 4 5 5 5 4 5 4 5 7 1 3 3 2 3 4 4 4 2 2 4 4 4 3 2 1 1 1 1 1 1 2 4 4 4 4 5 6 6 5 5 6 7 6 5 5 5 5 6 6 7 7 7 7 7 6 4
3 4 1 6 4 1 2 1 0 2 8 4 4 4 4 2 10 7 1 1 1 4 7 2 7 6 8 7 8 1 2 4 1 2 1 2 4 4 3 4 2 2 2 4 4 3 4 4 3 2 2 3 3 4 5 4 3 2 1 1 3 4 4 5 5 5 4 5 4 6 5 5 5 6 7 8 7 7 6 6 6 6 6 4 4 5
10 3 2 3 1 1 0 0 2 5 2 9 2 7 2 2 5 5 3 2 4 3 7 2 7 5 3 6 5 4 3 5 1 3 0 2 2 1 1 2 1 2 2 1 1 1 1 2 2 2 1 1 3 4 6 5 3 2 1 1 3 3 4 5 5 5 5 5 5 5 5 5 6 7 7 7 7 6 5 5 5 4 5 6 6 5
7 2 0 1 0 5 2 0 4 2 3 3 2 4 5 3 1 2 4 1 1 2 5 3 2 4 6 6 4 1 3 7 7 2 1 0 1 1 1 2 4 3 4 6 5 5 3 3 5 5 5 5 4 4 3 4 5 4 3 2 1 5 4 4 5 3 3 3 4 4 4 5 5 6 6 5 5 5 5 6 6 6 6 4 4 6
1 5 2 1 2 1 2 3 9 3 3 2 3 4 0 3 2 4 6 3 5 4 2 7 3 6 7 6 7 5 6 7 6 1 3 5 5 4 1 4 6 6 6 5 5 5 4 4 5 5 5 7 8 8 7 7 7 8 7 6 6 5 4 5 5 4 4 3 3 4 4 4 5 5 6 6 5 6 7 7 6 6 5 8 6 7
3 1 3 1 2 2 3 4 10 11 10 2 3 2 1 2 2 5 1 3 4 5 5 2 6 4 7 7 6 9 7 6 5 5 7 7 6 4 3 5 5 6 6 4 3 4 4 5 6 6 5 4 5 4 5 6 6 6 6 7 6 6 8 7 5 4 4 4 4 4 6 6 4 5 5 5 5 6 7 5 5 6 6 4 6 4
3 2 7 2 2 4 5 1 1 5 5 8 11 11 11 9 4 4 7 3 2 3 4 4 10 3 8 4 8 6 4 1 4 5 7 5 5 4 3 2 6 5 2 2 3 3 4 5 5 5 5 5 5 6 7 7 6 6 6 6 6 6 5 6 7 4 4 4 4 5 6 5 4 4 4 5 5 6 7 5 6 6 4 5 6 5
4 3 9 4 8 8 1 0 2 1 1 2 3 7 7 4 6 5 7 6 3 1 5 3 1 10 8 2 2 3 3 5 4 6 8 6 5 4 3 2 1 0 0 3 4 5 5 5 5 4 4 5 4 4 5 5 5 5 5 6 5 4 6 5 5 3 3 4 4 5 5 4 4 4 4 5 5 6 7 6 5 4 5 6 6 5
5 4 5 1 2 2 2 1 1 1 1 1 3 1 5 9 7 7 3 6 8 2 1 1 1 8 3 1 3 4 5 5 3 5 11 6 5 4 3 3 3 3 4 4 4 4 4 4 2 3 3 2 2 2 2 3 3 3 2 2 3 4 5 4 4 4 4 4 5 4 4 4 4 4 4 5 6 6 6 5 5 4 5 7 5 7
5 3 8 3 2 3 3 2 2 2 1 4 4 4 4 2 5 2 5 1 2 9 8 8 7 7 3 4 2 0 0 4 6 4 2 8 5 4 3 0 0 1 2 2 2 3 3 2 3 2 1 0 1 1 2 2 1 1 2 5 3 2 4 4 3 2 3 3 4 4 4 4 4 4 5 6 5 7 6 5 5 4 6 6 7 7
5 5 9 8 10 10 8 7 12 14 13 3 0 3 5 9 7 6 4 1 5 3 7 5 9 3 3 3 1 1 2 1 3 3 4 3 4 5 1 1 1 2 1 1 1 2 3 2 1 2 2 0 0 1 2 2 2 0 3 9 8 8 8 7 4 3 3 3 4 4 4 4 4 4 5 5 5 6 6 5 5 6 6 6 8 7
3 1 7 10 14 15 15 7 2 10 6 6 5 8 4 4 7 4 5 4 11 4 7 9 10 2 4 2 1 5 5 9 7 5 7 5 5 3 1 2 3 1 2 1 1 1 1 4 6 4 5 5 5 5 6 7 9 10 11 12 10 8 6 7 7 5 5 5 5 6 6 5 5 4 5 5 5 5 5 5 5 6 7 6 6 7
3 3 8 8 11 12 5 4 6 9 8 9 8 9 10 10 10 10 10 14 8 7 8 11 9 8 10 4 6 6 6 6 8 7 7 5 3 3 3 3 3 2 2 2 6 9 8 5 5 6 5 6 6 5 6 6 9 10 8 8 9 9 9 9 9 8 7 7 7 6 7 6 5 6 6 5 5 5 5 5 5 6 6 5 6 7
6 8 6 6 9 8 3 4 7 6 9 10 14 13 13 13 12 14 15 18 7 10 18 11 9 9 11 8 10 11 11 12 12 13 10 5 1 1 1 1 2 3 4 6 5 5 6 6 5 5 5 4 6 9 10 11 11 10 8 6 6 7 8 7 7 8 8 7 7 7 6 6 5 5 5 5 6 6 6 6 6 6 6 5 6 6
3 5 5 6 9 9 4 5 4 8 5 3 8 12 15 15 17 18 19 19 16 14 16 8 12 17 15 11 12 11 10 8 3 1 0 3 3 2 1 1 1 1 2 3 2 2 3 2 2 3 5 9 11 11 10 9 9 8 7 8 8 8 8 8 7 7 8 8 8 7 7 6 6 6 5 5 5 6 6 6 6 6 6 6 6 6
5 4 4 4 4 6 5 3 2 6 6 7 5 7 10 13 16 19 19 19 14 13 10 6 4 11 7 6 8 6 2 2 0 2 7 6 3 3 4 3 2 3 3 3 3 2 1 2 6 8 9 8 8 8 7 6 5 6 6 6 6 6 6 6 6 6 5 6 6 6 6 7 7 7 8 6 6 5 6 6 6 6 7 7 7 7
4 3 2 3 4 5 1 7 7 2 0 1 5 5 9 12 13 14 15 10 7 9 12 9 11 15 9 10 7 4 1 4 8 9 8 6 2 1 0 2 4 4 4 4 5 6 7 7 7 7 6 6 5 6 6 7 6 6 8 7 7 7 5 4 4 5 5 5 5 5 6 6 6 7 7 7 7 7 7 6 6 7 7 7 7 7
5 5 5 4 5 5 1 5 6 5 3 3 10 13 18 17 15 11 8 6 12 15 13 11 16 18 4 10 9 3 6 8 8 7 6 4 2 3 3 5 4 4 4 4 5 5 5 5 4 4 5 4 4 5 5 5 5 6 7 8 7 7 6 6 5 5 5 6 5 6 6 6 6 7 7 7 7 7 7 7 7 8 7 8 7 5
4 6 5 4 6 3 1 5 5 6 8 12 11 18 15 16 16 13 9 15 17 12 11 15 13 2 5 7 10 10 10 11 10 6 2 4 5 4 5 5 5 4 3 3 2 3 3 3 3 4 3 3 4 3 3 4 4 5 5 6 6 6 6 6 7 5 5 5 5 5 5 5 5 6 6 6 6 6 6 6 7 7 7 7 6 6
5 5 5 3 3 3 1 4 5 10 13 8 2 5 15 17 11 17 20 18 14 13 12 11 9 7 8 9 10 10 8 0 1 3 2 0 5 8 9 6 5 5 4 3 4 3 3 2 4 4 5 5 4 4 4 4 3 4 4 4 5 4 5 5 5 5 5 5 5 4 5 5 5 6 6 5 5 5 5 6 7 6 6 7 7 7
7 7 4 1 4 4 3 4 8 11 4 2 1 2 2 5 6 6 9 11 8 8 11 15 17 16 5 4 4 3 6 4 4 3 2 2 4 8 8 6 4 4 4 2 2 2 2 3 3 4 4 4 4 5 4 4 4 5 6 4 4 4 4 4 5 5 6 8 9 9 9 9 10 10 9 9 9 8 9 8 7 8 8 6 7 6
5 3 3 3 4 8 7 10 11 4 6 1 3 3 8 8 8 12 12 14 16 13 14 16 18 15 5 6 5 3 5 4 4 1 0 1 2 3 6 6 5 4 3 1 0 1 1 2 2 3 3 4 4 5 5 5 5 5 6 6 6 5 6 6 7 9 9 9 10 11 10 10 11 11 11 10 11 12 11 11 12 9 5 8 8 7
4 6 3 6 4 5 7 7 3 4 13 12 9 1 1 4 9 9 8 9 5 11 15 14 14 12 9 5 5 7 6 6 4 5 2 1 2 4 3 4 3 3 2 1 0 1 1 2 1 2 2 3 4 4 4 5 6 6 8 8 9 10 10 8 9 8 9 10 10 10 10 10 9 11 11 11 11 12 12 10 8 8 6 7 11 12
3 3 2 6 2 5 6 9 9 10 11 6 4 4 4 6 10 6 5 12 6 8 11 12 13 13 9 10 7 9 8 8 10 6 7 5 3 3 6 4 4 3 2 1 1 2 3 3 2 3 3 3 5 5 5 5 6 7 8 7 8 7 8 8 8 9 10 11 10 9 9 8 9 9 10 11 11 10 11 11 10 10 8 8 7 10
8 6 6 8 8 5 7 10 11 5 5 1 2 2 3 4 8 8 6 9 5 6 10 9 12 15 9 9 12 10 11 10 8 6 7 6 5 4 4 5 4 4 4 3 3 2 3 3 4 4 5 6 6 5 6 4 4 4 6 7 6 8 7 7 8 8 8 8 9 8 9 8 9 9 8 10 11 10 9 8 9 10 9 10 8 9
9 5 8 12 10 10 11 6 2 5 3 3 3 1 3 5 9 9 15 3 2 4 1 7 10 4 9 9 10 10 4 2 3 8 8 6 7 4 3 2 2 2 4 5 5 5 5 5 4 5 6 6 6 7 6 6 6 7 7 7 8 9 8 8 8 8 8 8 9 10 10 8 7 10 11 8 9 10 11 8 8 10 10 10 10 10
6 4 2 6 9 9 9 10 8 2 4 6 1 6 5 7 7 10 2 1 4 5 1 4 7 5 9 11 6 4 5 5 9 7 7 5 6 4 4 4 5 5 4 2 4 5 5 6 6 7 7 6 8 7 6 6 7 6 7 7 8 9 8 8 8 8 8 9 9 9 9 10 10 8 9 9 9 10 12 10 7 8 9 9 9 11
10 7 6 10 6 5 5 7 6 11 2 7 9 3 1 3 5 4 4 3 2 5 8 4 6 7 10 7 7 10 9 6 7 8 6 6 6 5 5 4 4 4 4 5 6 6 5 6 7 7 7 7 7 6 6 5 5 5 5 7 8 7 7 8 8 8 8 9 9 9 10 9 10 10 8 9 9 10 12 12 10 10 9 9 10 11
7 7 4 6 7 7 10 10 7 3 4 8 10 8 7 8 2 6 7 3 1 3 5 8 3 4 6 14 12 9 8 9 7 7 7 6 5 3 3 3 2 3 3 3 3 4 5 5 5 6 6 6 6 6 5 6 7 7 7 9 8 9 10 9 9 9 10 10 10 11 11 11 11 10 9 9 10 10 11 12 11 10 9 8 8 10
6 10 5 8 6 8 4 5 2 1 3 3 2 1 2 1 1 3 3 7 9 4 2 7 7 5 7 11 10 9 6 4 6 5 5 3 4 3 4 3 4 4 4 4 5 5 4 6 7 7 6 5 6 6 5 6 9 10 9 9 9 11 11 12 11 11 11 12 11 11 11 11 12 11 10 10 8 10 11 12 11 11 11 9 9 9
4 1 1 2 3 2 2 1 1 1 0 1 2 2 1 1 2 2 7 8 2 4 3 8 6 6 6 8 11 4 5 5 6 4 4 4 4 3 4 3 4 4 4 5 5 7 6 6 5 5 6 5 6 6 7 8 8 10 11 10 10 11 11 11 12 13 13 12 12 13 13 13 14 13 11 11 9 9 9 10 10 11 12 11 10 10
3 1 0 2 1 5 6 3 2 1 1 1 1 2 3 2 3 2 5 6 7 6 8 5 7 6 6 5 9 10 7 5 6 4 3 3 3 2 3 3 4 4 5 5 6 6 6 4 5 5 6 7 6 7 8 7 7 8 9 11 10 10 10 11 12 12 12 11 12 13 12 12 11 12 13 12 10 9 9 9 9 10 11 11 11 11
4 3 3 2 2 6 3 1 1 2 1 1 0 1 3 3 6 6 6 7 8 7 8 6 8 9 5 8 6 10 7 5 7 5 4 2 2 1 1 2 3 3 4 4 4 4 5 5 7 8 8 8 8 8 8 8 8 9 10 10 10 10 10 10 9 11 13 14 12 10 10 11 14 14 12 13 12 12 12 11 9 9 11 13 12 11
3 5 4 5 6 1 2 1 1 3 3 1 2 2 1 4 8 8 7 9 9 12 10 8 6 5 6 8 6 9 9 5 4 4 4 2 2 1 0 1 1 3 5 7 7 7 8 8 10 9 10 9 8 8 8 9 9 9 10 10 10 10 9 9 11 12 14 12 11 10 10 9 10 10 12 13 14 12 11 11 12 12 14 14 11 10
4 7 2 4 3 3 8 7 7 5 3 5 5 6 6 5 7 10 7 8 8 10 9 11 8 7 7 5 5 6 9 6 4 3 2 2 2 1 1 2 4 4 5 4 3 4 5 6 6 9 9 9 8 8 9 9 9 9 9 10 8 8 10 12 13 13 11 10 9 9 10 8 10 9 10 11 12 14 15 16 18 15 13 16 20 20
8 6 6 6 7 7 7 8 13 5 2 4 11 9 7 6 8 11 9 10 6 5 7 12 10 6 6 6 4 7 6 6 4 4 3 2 2 3 4 3 5 5 5 4 5 5 5 6 6 7 8 8 8 9 9 10 10 10 10 8 7 10 11 13 12 12 11 12 12 13 14 13 12 11 10 10 11 10 12 15 17 20 23 22 22 25
Wind_Direction
108 136 178 194 194 185 196 178 166 178 152 113 79 100 175 168 277 275 279 278 3 104 246 239 269 277 278 272 275 280 316 306 283 278 270 264 266 265 264 258 254 247 247 286 220 252 250 253 249 241 220 225 222 219 206 202 206 203 203 191 210 203 188 185 190 193 193 198 202 211 212 220 213 212 211 212 212 212 214 201 204 238 204 176 194 221
67 153 227 202 191 186 169 122 109 74 55 137 140 143 200 187 163 221 105 347 328 139 292 39 333 275 262 274 270 278 318 276 259 260 262 261 256 259 262 270 261 256 299 307 307 291 291 267 260 251 227 210 214 230 204 209 212 205 196 200 211 173 188 194 193 194 196 200 202 200 209 211 210 206 207 216 210 215 213 212 215 222 237 232 209 196
163 201 220 197 114 92 93 93 75 123 114 58 145 160 104 253 240 296 328 334 332 76 268 27 331 276 269 263 268 253 253 252 243 222 245 253 269 262 257 257 270 285 279 314 272 275 266 271 267 242 235 229 223 231 201 217 200 197 200 210 200 190 188 197 193 186 200 200 204 204 208 201 210 225 213 218 205 199 205 208 208 202 213 228 232 216
187 274 239 148 134 108 62 83 96 75 68 112 99 117 199 238 130 242 283 350 358 76 312 294 315 281 277 279 265 269 250 270 260 252 256 236 251 257 255 256 269 275 283 294 284 276 279 272 281 290 254 241 241 246 219 205 207 204 208 208 198 196 194 191 196 198 195 176 154 109 98 126 168 195 207 202 178 197 210 218 212 223 204 212 227 214
185 258 319 134 152 142 142 156 126 119 154 351 122 129 125 156 229 149 188 344 350 28 53 330 277 295 324 332 331 324 330 313 288 318 280 261 245 266 290 287 248 260 274 288 292 275 270 294 283 271 258 229 216 221 222 204 207 205 209 207 194 188 190 188 182 184 156 123 120 106 70 69 73 41 105 185 223 207 208 215 212 218 201 205 220 216
258 318 125 107 115 98 121 162 202 138 167 19 231 171 189 177 142 230 20 129 25 335 357 53 346 317 301 286 244 286 343 325 301 318 283 294 293 281 270 264 274 254 243 243 259 277 303 265 279 297 300 281 243 231 222 207 211 204 203 187 185 178 174 183 178 168 159 172 169 163 169 179 185 204 177 201 207 205 206 212 209 205 204 210 215 214
195 17 108 157 143 139 145 179 217 153 164 132 248 171 153 143 128 126 115 80 351 158 360 27 156 269 320 301 289 331 335 309 316 296 290 299 298 289 268 279 279 263 276 279 281 293 299 304 324 314 283 276 267 252 237 214 206 201 188 180 175 176 170 163 167 165 165 174 185 191 198 203 203 210 222 220 221 208 216 210 206 212 209 211 215 223
95 91 84 81 102 125 142 208 230 153 127 212 252 123 111 113 130 158 106 106 181 243 294 39 93 235 304 286 265 319 329 302 315 319 313 309 304 300 295 284 277 273 251 259 279 285 286 295 281 288 292 278 247 270 313 258 208 179 177 156 165 156 160 170 162 171 181 186 192 198 210 211 213 212 222 197 213 214 200 206 216 213 218 215 220 226
124 157 157 151 97 121 181 212 185 147 132 227 227 126 124 133 139 111 90 103 125 31 280 334 324 282 255 266 315 342 316 300 313 302 307 316 317 314 311 311 294 270 253 232 251 267 283 292 296 279 315 316 314 304 248 228 198 151 129 125 126 149 157 176 172 177 193 197 194 201 203 221 228 226 230 198 201 194 197 211 218 219 223 223 227 231
352 157 210 151 139 186 227 342 136 129 114 236 130 93 92 79 69 91 102 82 346 69 273 230 351 201 281 279 332 332 230 287 263 282 300 303 307 321 332 335 343 341 334 231 234 263 281 296 316 314 291 344 356 332 326 25 82 101 112 123 141 166 178 175 182 185 194 199 190 198 208 218 228 219 238 181 208 210 189 218 218 220 224 223 225 224
215 326 187 91 184 186 127 46 115 18 113 133 112 74 39 39 29 31 62 85 62 355 252 254 306 154 297 276 234 86 199 197 277 307 300 321 350 356 351 344 339 341 347 8 353 302 292 286 310 341 20 339 4 17 44 43 53 81 109 129 148 184 180 182 191 186 200 200 197 207 209 216 223 217 212 220 237 209 207 222 224 217 224 221 225 213
28 8 87 273 72 110 105 77 26 78 97 125 99 127 76 358 10 30 346 34 125 268 261 277 269 16 173 290 309 232 281 228 195 254 294 314 316 326 334 336 331 327 331 337 14 10 352 15 11 18 26 6 352 22 23 25 32 61 89 124 151 188 194 195 196 193 210 203 213 220 214 217 220 211 209 218 225 209 217 216 223 219 223 231 229 228
37 122 224 357 199 125 121 86 1 23 351 80 87 82 115 232 35 290 12 262 213 199 243 339 175 350 242 231 244 306 259 259 225 213 223 251 287 307 315 321 318 317 342 354 11 6 15 30 9 11 1 8 18 5 356 360 14 35 98 148 167 224 218 211 202 201 208 207 218 217 221 227 219 216 216 223 228 214 217 214 221 207 220 216 225 224
273 291 13 296 72 221 147 130 133 140 294 110 138 141 106 127 86 233 276 259 309 293 271 310 311 267 249 280 249 243 243 205 226 232 236 245 261 282 290 300 304 322 329 325 324 341 359 3 347 336 345 11 5 0 348 336 16 64 109 163 186 238 218 212 208 214 212 220 223 219 224 228 217 224 219 224 223 224 219 211 220 214 213 213 215 215
146 289 251 148 220 161 164 164 176 158 160 202 80 144 176 141 155 204 196 202 215 201 286 281 69 232 128 242 261 230 253 262 261 276 279 283 283 280 254 257 279 286 296 310 349 343 337 331 333 347 360 0 351 340 336 328 327 12 5 224 248 271 264 212 217 214 223 230 226 226 231 232 219 227 223 228 223 224 219 218 220 220 217 215 219 214
206 211 274 316 267 146 166 242 114 99 45 331 162 84 92 219 139 125 207 142 193 345 5 247 217 189 167 293 280 248 287 286 283 281 298 301 290 316 320 285 263 282 304 344 7 8 355 318 332 360 5 353 330 301 285 317 335 25 335 271 270 269 279 253 235 228 228 237 230 227 230 232 232 233 229 234 227 227 218 222 215 225 219 222 222 221
42 239 353 308 50 103 151 165 150 140 176 219 106 198 208 124 98 97 62 14 83 42 256 162 312 289 300 315 276 337 316 286 332 294 342 301 301 316 304 293 304 313 351 7 14 348 354 6 14 354 332 336 340 349 353 353 337 325 325 314 292 284 282 267 245 236 234 243 238 240 230 236 235 230 229 230 231 227 225 222 225 224 228 226 217 223
153 217 353 62 156 341 209 133 104 34 146 97 181 228 182 138 125 125 202 354 64 186 265 95 226 290 32 275 330 330 289 286 269 227 275 284 312 23 319 304 332 10 356 297 281 269 292 314 320 324 293 329 346 343 344 353 347 308 290 259 281 273 268 263 245 238 227 230 238 243 240 238 233 236 238 236 238 233 230 230 230 232 235 223 223 213
120 87 318 358 68 289 2 79 49 11 40 141 199 190 113 216 208 322 89 249 163 269 270 297 266 253 190 237 331 305 216 247 251 247 76 243 101 99 350 39 53 63 72 55 53 48 36 22 11 2 353 345 10 10 351 336 341 346 3 352 317 302 292 283 270 244 235 229 247 246 250 242 245 245 248 247 245 244 237 237 228 225 228 230 216 216
78 143 281 339 134 284 4 103 196 200 345 48 90 84 298 101 161 128 199 175 126 240 61 288 45 245 204 217 203 226 217 223 220 158 202 196 179 155 132 89 94 94 97 97 70 36 8 352 350 359 354 347 345 341 340 342 348 354 347 339 338 322 313 311 307 303 295 270 250 263 261 254 240 244 242 241 241 241 239 240 236 234 228 225 213 211
163 122 172 290 301 80 181 199 215 166 152 71 97 176 118 38 223 108 28 126 182 171 184 229 314 281 258 214 189 218 210 221 199 178 189 187 189 177 169 122 117 101 84 66 41 12 352 346 347 347 351 343 335 340 348 0 352 333 338 338 340 330 320 316 305 307 291 299 278 267 262 258 248 251 247 253 244 247 248 246 237 236 234 244 235 223
101 183 178 127 59 228 240 272 208 168 186 165 164 188 171 127 136 157 252 35 102 125 228 137 255 271 269 178 200 218 236 223 227 188 176 188 199 204 202 145 109 99 71 47 346 326 325 346 347 346 350 2 15 1 352 337 346 342 340 327 323 331 313 296 293 293 298 297 282 275 272 268 263 257 255 252 256 253 257 253 245 243 248 238 242 210
140 123 105 171 201 195 172 9 255 305 145 180 162 211 171 170 101 120 201 234 55 271 101 154 320 269 246 222 211 243 234 248 226 159 151 178 194 205 196 146 95 126 123 318 334 341 344 351 343 339 346 350 343 330 326 321 321 315 321 333 328 318 289 265 273 298 294 287 280 270 269 279 275 268 264 263 262 259 258 257 255 248 244 250 251 236
92 98 91 330 314 319 327 317 41 40 68 327 289 115 153 200 189 178 161 176 158 162 113 355 253 253 288 273 253 247 262 264 256 187 153 186 196 219 201 118 60 27 351 345 335 336 332 329 327 15 17 353 333 304 293 283 275 271 260 300 329 275 278 312 321 311 306 293 287 290 300 292 284 280 269 266 264 266 267 265 263 251 247 253 254 248
161 252 138 134 31 346 344 345 354 348 47 211 194 198 204 91 74 130 104 72 120 216 171 130 235 266 270 320 302 25 130 167 178 223 203 157 206 213 191 120 335 303 319 322 322 323 328 15 39 40 336 303 297 277 263 273 287 284 223 206 217 324 357 350 333 307 288 274 289 297 294 289 287 279 277 269 272 271 275 272 270 261 252 258 257 252
180 172 143 156 177 182 197 191 214 211 203 183 232 180 186 159 140 124 187 148 196 267 152 174 236 256 281 328 19 46 112 235 261 254 244 224 202 200 153 255 263 256 234 260 293 343 15 6 347 37 46 73 141 201 196 203 207 332 18 24 20 5 355 355 349 343 338 334 326 316 317 302 300 282 275 276 278 274 275 274 266 263 257 245 256 258
164 149 194 189 194 206 211 207 30 87 76 186 212 151 166 164 179 144 107 112 210 203 175 228 226 200 246 268 246 205 174 189 210 229 251 218 220 240 186 233 238 211 178 172 183 196 165 39 23 8 12 6 3 6 7 10 10 16 16 6 3 360 349 347 348 352 1 356 353 338 334 335 324 307 292 285 280 281 280 272 264 259 260 250 249 257
88 185 220 206 223 224 182 156 205 145 164 197 150 182 176 169 180 171 181 217 191 90 249 232 215 219 234 240 230 224 226 224 221 207 223 256 259 197 180 226 293 14 10 31 41 32 27 14 16 19 9 11 7 0 13 16 26 24 14 352 347 349 351 351 351 351 356 356 349 346 334 332 325 320 309 303 300 293 286 281 274 264 263 261 257 253
145 199 224 171 239 237 159 176 173 172 178 185 186 173 174 182 178 185 213 224 159 193 229 231 142 216 232 200 214 209 196 198 205 209 204 207 227 119 208 330 4 16 20 39 33 31 26 22 7 6 4 3 12 18 13 14 12 8 0 356 351 350 356 345 349 351 352 351 352 343 332 323 323 316 315 315 312 307 300 291 281 279 274 266 263 256
126 233 201 172 219 237 190 174 187 175 197 167 191 189 184 177 189 196 214 220 205 218 230 228 169 216 223 196 210 218 210 203 208 226 135 232 212 172 202 240 141 116 81 73 43 27 18 2 5 8 14 20 19 13 10 7 4 0 352 345 347 350 349 354 353 354 352 352 345 337 336 332 325 324 315 313 307 302 299 294 291 287 281 272 263 264
156 261 121 143 195 253 214 157 172 205 176 204 221 196 189 193 199 203 213 222 219 238 249 253 231 266 247 177 217 240 166 143 85 245 235 227 128 186 184 163 179 145 155 158 165 175 181 52 28 24 25 16 12 6 359 351 344 342 343 347 344 344 339 349 342 348 353 342 335 331 331 338 335 333 333 326 315 308 302 296 291 286 279 274 269 266
147 242 51 97 176 281 210 166 202 123 71 219 244 200 195 196 210 221 219 219 188 213 232 239 256 254 251 140 213 218 177 215 223 227 235 242 209 192 108 123 110 99 77 53 37 31 27 26 23 20 16 2 359 355 355 347 342 344 344 340 340 335 329 339 344 343 337 332 329 333 336 333 328 329 322 325 319 316 307 302 299 290 283 280 278 268
177 147 146 144 177 240 292 156 126 111 72 288 242 223 208 206 208 218 230 231 212 203 214 213 233 243 196 176 186 216 184 219 229 227 232 263 246 200 156 132 118 98 76 53 45 32 24 15 9 3 355 0 351 350 337 331 336 341 334 333 327 328 337 343 347 340 336 336 337 332 333 329 328 319 314 311 308 304 306 303 300 293 291 284 276 278
135 153 176 171 173 240 346 123 122 102 210 227 221 216 194 202 204 205 212 217 225 192 213 212 233 234 134 176 175 198 201 210 214 229 186 197 142 113 110 122 122 117 100 72 67 41 17 358 3 353 338 326 317 312 306 307 300 310 309 303 316 329 333 335 336 337 325 325 327 322 318 315 311 306 298 295 294 293 292 290 283 281 276 280 285 275
154 162 170 176 133 209 203 123 100 216 236 228 297 143 198 214 199 204 219 221 223 218 229 253 268 243 198 187 193 197 192 124 25 135 66 14 142 135 141 136 126 114 101 81 50 29 14 11 351 360 354 354 339 328 339 334 329 319 316 319 324 325 329 329 320 326 325 324 318 318 320 319 313 310 307 299 295 293 287 282 285 282 278 279 278 279
168 155 151 91 131 64 107 155 218 235 226 355 300 213 359 164 194 177 261 258 243 214 208 232 239 243 196 187 220 209 142 145 85 43 62 28 109 133 124 134 143 124 101 110 85 14 8 1 344 332 323 316 336 331 340 331 332 339 328 316 307 320 324 322 323 329 341 341 342 342 340 339 334 330 329 328 327 323 320 317 307 308 307 291 282 268
148 100 125 188 190 192 170 203 225 12 343 168 254 232 174 162 153 176 224 240 226 210 198 215 230 237 194 189 178 102 109 90 72 40 294 139 98 98 122 133 142 144 124 149 177 332 311 302 322 312 307 320 324 329 334 331 336 334 328 338 338 340 343 347 348 348 345 341 339 339 338 339 332 328 327 327 327 325 324 325 322 317 307 301 295 285
171 168 223 180 240 188 200 224 262 242 248 241 224 274 198 155 168 182 187 261 220 207 206 207 224 231 217 168 155 149 139 104 194 243 226 202 150 119 86 105 120 131 147 132 237 291 307 313 308 307 283 304 325 324 332 337 341 342 344 343 343 346 346 351 345 341 339 335 335 331 331 329 327 321 321 322 321 318 314 313 304 298 304 301 306 305
214 164 229 178 249 136 209 228 223 225 238 237 239 190 191 170 151 126 167 248 247 198 192 189 217 230 197 168 164 148 143 193 228 192 194 167 170 148 115 123 121 124 127 118 101 13 352 341 328 305 335 346 350 348 349 345 348 347 342 340 337 339 337 338 335 337 335 328 324 321 318 316 314 312 311 312 308 308 306 308 307 303 307 296 291 289
188 191 168 204 207 206 196 216 225 215 250 243 234 257 239 125 116 103 196 248 244 137 182 179 209 221 182 170 153 165 170 214 224 201 175 164 158 175 127 114 82 54 24 9 18 40 0 353 7 8 5 360 343 338 343 344 350 341 334 332 331 331 330 327 327 320 317 314 313 311 310 309 310 305 304 303 303 302 296 298 305 307 308 305 300 296
185 182 193 206 206 215 215 242 319 285 270 209 218 216 149 164 128 166 215 228 216 208 267 192 204 176 134 146 158 176 241 216 156 133 123 137 109 95 74 84 93 87 28 6 353 1 8 3 10 354 344 337 341 344 346 349 353 347 339 334 333 326 322 319 318 317 314 313 310 309 307 305 298 302 302 296 296 300 300 301 302 304 305 303 304 301
187 184 218 205 216 208 213 222 235 291 229 165 310 154 173 124 207 215 210 351 164 167 155 129 124 147 152 157 161 111 130 108 95 101 115 107 108 104 72 49 39 31 22 15 359 11 3 359 352 349 348 349 350 345 343 350 348 334 329 329 318 308 315 315 314 311 309 307 304 300 301 303 303 299 298 303 306 307 303 302 299 290 294 296 295 296
179 180 187 194 195 208 201 225 218 229 245 121 124 95 308 154 230 190 139 14 66 141 130 115 124 147 136 107 115 128 128 115 112 110 109 103 91 82 63 52 47 29 11 5 7 5 17 356 347 344 338 340 346 342 335 339 333 322 317 310 303 310 312 312 311 310 306 304 303 303 303 303 304 306 308 306 305 301 299 301 304 299 294 293 294 292
177 188 181 202 178 197 197 210 212 203 145 190 157 194 195 201 190 152 135 92 81 124 135 115 88 130 129 126 133 124 122 114 95 103 95 89 94 83 86 65 61 44 32 29 25 1 11 345 336 329 329 330 334 334 333 339 330 325 324 316 320 324 320 319 319 316 316 315 316 315 315 314 312 310 308 304 305 301 297 300 302 301 293 292 288 291
209 203 175 199 180 194 216 205 238 253 185 203 48 59 218 130 74 147 121 137 146 195 179 110 129 120 123 120 116 123 108 101 121 121 114 124 101 92 79 59 49 35 21 10 7 6 4 342 330 319 315 324 329 332 343 344 335 327 328 325 334 326 324 323 324 324 321 321 318 317 316 314 309 308 307 304 305 303 302 302 304 302 300 299 289 280
341 219 15 114 248 90 46 151 114 33 38 317 17 2 52 43 27 99 136 118 44 108 147 137 137 122 116 119 113 75 107 131 110 92 84 62 66 44 57 41 37 32 12 3 355 0 343 329 318 314 318 330 339 346 348 347 344 333 326 332 329 322 319 322 324 323 321 322 320 318 320 316 311 310 307 305 302 294 286 288 296 296 296 294 288 285
255 148 93 174 265 158 245 140 113 153 20 29 72 25 31 39 27 52 97 91 120 112 96 87 113 111 113 107 118 127 122 118 115 94 81 75 65 48 44 22 17 11 1 352 344 341 333 323 326 333 340 337 344 349 343 344 342 331 324 324 318 314 314 314 315 313 314 317 317 314 316 313 310 312 311 308 305 297 293 288 286 286 285 283 284 287
273 183 169 201 190 179 238 46 282 313 303 332 339 139 115 72 62 47 80 99 103 93 94 105 108 97 96 98 117 121 124 119 124 127 122 115 117 92 57 24 0 344 337 342 333 338 333 343 345 340 340 339 338 343 338 336 332 326 319 312 309 305 304 306 312 316 317 316 313 307 308 306 306 308 306 306 306 304 301 294 285 280 277 283 284 286
204 124 206 187 188 109 22 2 261 91 47 31 33 28 102 137 117 105 104 110 112 103 93 69 55 97 104 120 116 123 118 121 115 128 136 151 143 130 94 10 331 335 336 350 351 358 353 349 342 337 334 330 337 337 332 327 323 318 314 306 304 303 314 326 324 316 308 305 304 300 302 296 297 300 302 301 299 291 281 285 290 287 282 270 265 260
95 192 200 111 88 172 194 194 171 123 221 229 220 183 171 172 132 123 119 104 114 117 122 108 88 78 86 91 111 121 125 127 118 112 129 134 123 101 60 14 359 349 350 339 346 340 348 345 334 327 326 324 329 330 323 317 315 309 300 300 304 336 343 331 322 314 308 311 309 310 312 307 299 293 290 291 294 298 295 280 271 265 269 283 282 270
189 196 147 170 173 218 230 198 188 171 140 189 173 169 168 169 150 135 142 136 123 123 136 127 122 96 79 69 52 98 107 121 125 115 134 137 85 50 35 15 356 348 338 342 347 345 345 335 332 327 321 321 326 320 317 315 311 309 308 310 350 348 338 332 320 314 314 317 314 312 310 306 304 300 295 289 290 290 291 299 297 283 269 258 269 277